Weather History for Chanute, KS

Change the Weather History Date:

Monday, December 23, 2013

  Actual Average Record
Temperature  
Mean Temperature 13 °F 33 °F  
Max Temperature 18 °F 42 °F 68 °F (1982)
Min Temperature 8 °F 24 °F -17 °F (1989)
Degree Days  
Heating Degree Days 52 32  
Month to date heating degree days 766 681  
Since 1 July heating degree days 1686 1533  
Cooling Degree Days 0 0  
Month to date cooling degree days 0 0  
Year to date cooling degree days 1560 1532  
Moisture  
Dew Point 10 °F    
Average Humidity 83    
Maximum Humidity 92    
Minimum Humidity 73    
Precipitation  
Precipitation 0.00 in 0.06 in 1.28 in (1932)
Month to date precipitation 0.16 1.37  
Year to date precipitation 47.75 41.69  
Sea Level Pressure  
Sea Level Pressure 30.59 in    
Wind  
Wind Speed 5 mph (North)    
Max Wind Speed 14 mph    
Max Gust Speed 18 mph    
Visibility 10 miles    
Events      
T = Trace of Precipitation, MM = Missing Value Source: NWS Daily Summary

Daily Weather History Graph

Daily Weather History Graph

Search for Another Location

Airport:

Trip Planner

Search our weather history database for the weather conditions in past years. The results will help you decide how hot, cold, wet, or windy it might be!

Date:

Astronomy

Dec. 23, 2013 Rise Set
Actual Time 7:34 AM CST 5:08 PM CST
Civil Twilight 7:05 AM CST 5:37 PM CST
Nautical Twilight 6:32 AM CST 6:10 PM CST
Astronomical Twilight 6:00 AM CST 6:42 PM CST
Moon 11:12 PM CST (12/23) 11:06 AM CST (12/23)
Length of Visible Light 10h 32m
Length of Day
9h 33m
Waning Gibbous, 68% of the Moon is Illuminated
Dec 23
Waning Gibbous
Dec 25
Last Quarter
Jan 1
New
Jan 7
First Quarter
Jan 15
Full

Hourly Weather History & Observations

Time (CST) Temp. Windchill Dew Point Humidity Pressure Visibility Wind Dir Wind Speed Gust Speed Precip Events Conditions
12:52 AM 12.9 °F - 10.0 °F 88% 30.42 in 9.0 mi Calm Calm - N/A   Clear
1:52 AM 14.0 °F - 10.9 °F 88% 30.43 in 9.0 mi Calm Calm - N/A   Clear
2:52 AM 14.0 °F 8.2 °F 10.9 °F 88% 30.46 in 10.0 mi NW 3.5 mph - N/A   Clear
3:52 AM 14.0 °F 5.1 °F 10.9 °F 88% 30.47 in 10.0 mi North 5.8 mph - N/A   Clear
4:52 AM 14.0 °F 5.1 °F 10.9 °F 88% 30.50 in 9.0 mi North 5.8 mph - N/A   Clear
5:52 AM 14.0 °F 3.9 °F 10.0 °F 84% 30.52 in 10.0 mi North 6.9 mph - N/A   Partly Cloudy
6:52 AM 14.0 °F 2.0 °F 9.0 °F 80% 30.54 in 10.0 mi NNE 9.2 mph - N/A   Scattered Clouds
7:52 AM 14.0 °F 5.1 °F 8.1 °F 77% 30.59 in 10.0 mi North 5.8 mph - N/A   Overcast
8:52 AM 14.0 °F 2.9 °F 8.1 °F 77% 30.61 in 10.0 mi North 8.1 mph - N/A   Overcast
9:52 AM 15.1 °F 2.5 °F 9.0 °F 77% 30.65 in 10.0 mi North 10.4 mph - N/A   Overcast
10:52 AM 15.1 °F 2.5 °F 9.0 °F 77% 30.64 in 10.0 mi North 10.4 mph - N/A   Overcast
11:52 AM 16.0 °F 5.3 °F 10.0 °F 77% 30.64 in 10.0 mi North 8.1 mph - N/A   Overcast
12:52 PM 16.0 °F 5.3 °F 10.0 °F 77% 30.64 in 10.0 mi North 8.1 mph - N/A   Overcast
1:52 PM 17.1 °F 5.8 °F 10.9 °F 77% 30.64 in 10.0 mi North 9.2 mph - N/A   Overcast
2:52 PM 17.1 °F 8.7 °F 10.9 °F 77% 30.63 in 10.0 mi North 5.8 mph - N/A   Overcast
3:52 PM 17.1 °F - 12.0 °F 81% 30.62 in 10.0 mi Calm Calm - N/A   Overcast
4:52 PM 16.0 °F 8.8 °F 10.9 °F 81% 30.64 in 10.0 mi North 4.6 mph - N/A   Scattered Clouds
4:59 PM 16.0 °F - 10.9 °F 81% 30.59 in 10.0 mi Calm Calm - N/A   Mostly Cloudy
5:52 PM 16.0 °F 10.4 °F 10.9 °F 81% 30.64 in 10.0 mi NNW 3.5 mph - N/A   Mostly Cloudy
6:03 PM 15.1 °F 9.4 °F 10.0 °F 80% 30.59 in 10.0 mi NNW 3.5 mph - N/A   Partly Cloudy
6:52 PM 14.0 °F - 10.0 °F 84% 30.66 in 10.0 mi Calm Calm - N/A   Mostly Cloudy
6:59 PM 14.0 °F 8.2 °F 10.0 °F 84% 30.60 in 10.0 mi North 3.5 mph - N/A   Mostly Cloudy
7:28 PM 14.0 °F - 9.0 °F 80% 30.61 in 10.0 mi Calm Calm - N/A   Scattered Clouds
7:52 PM 12.0 °F - 8.1 °F 84% 30.67 in 10.0 mi Calm Calm - N/A   Clear
8:52 PM 12.0 °F 5.9 °F 8.1 °F 84% 30.65 in 10.0 mi ENE 3.5 mph - N/A   Clear
9:52 PM 10.0 °F - 6.1 °F 84% 30.65 in 9.0 mi Calm Calm - N/A   Clear
10:52 PM 10.9 °F - 7.0 °F 84% 30.65 in 10.0 mi Calm Calm - N/A   Clear
11:52 PM 8.1 °F - 5.0 °F 87% 30.66 in 10.0 mi Calm Calm - N/A   Clear